TimeEDT,TemperatureF,Dew PointF,Humidity,Sea Level PressureIn,VisibilityMPH,Wind Direction,Wind SpeedMPH,Gust SpeedMPH,PrecipitationIn,Events,Conditions,WindDirDegrees,DateUTC
12:53 AM,79.0,72.0,79,29.88,10.0,Calm,Calm,-,N/A,,Scattered Clouds,0,2013-10-07 04:53:00
1:53 AM,79.0,73.9,84,29.88,10.0,SE,3.5,-,N/A,,Scattered Clouds,130,2013-10-07 05:53:00
2:53 AM,78.1,75.0,90,29.85,10.0,ESE,3.5,-,N/A,,Scattered Clouds,120,2013-10-07 06:53:00
3:53 AM,78.1,73.9,87,29.84,10.0,SSE,5.8,-,N/A,,Scattered Clouds,150,2013-10-07 07:53:00
4:53 AM,77.0,72.0,84,29.83,10.0,South,8.1,-,N/A,,Overcast,180,2013-10-07 08:53:00
5:53 AM,75.9,72.0,87,29.84,5.0,South,5.8,-,0.02,Rain,Rain,180,2013-10-07 09:53:00
6:53 AM,77.0,73.9,90,29.83,10.0,SSW,5.8,-,0.10,,Overcast,200,2013-10-07 10:53:00
7:23 AM,77.0,73.4,89,29.83,10.0,South,5.8,-,0.00,Rain,Light Rain,170,2013-10-07 11:23:00
7:53 AM,75.9,73.0,91,29.83,10.0,SSE,5.8,-,0.00,,Overcast,150,2013-10-07 11:53:00
8:25 AM,75.2,73.4,94,29.84,10.0,SSE,5.8,-,0.00,Rain,Light Rain,160,2013-10-07 12:25:00
8:37 AM,75.2,73.4,94,29.85,7.0,SSW,4.6,-,0.03,Rain,Light Rain,200,2013-10-07 12:37:00
8:53 AM,77.0,73.9,90,29.86,9.0,South,9.2,-,0.03,Rain,Light Rain,170,2013-10-07 12:53:00
9:04 AM,77.0,73.4,89,29.85,9.0,SSE,6.9,-,0.01,Rain,Light Rain,150,2013-10-07 13:04:00
9:53 AM,77.0,73.9,90,29.86,7.0,SSE,8.1,-,0.10,Rain,Light Rain,160,2013-10-07 13:53:00
9:56 AM,77.0,73.4,89,29.86,10.0,SSE,5.8,-,0.00,Rain,Light Rain,160,2013-10-07 13:56:00
10:17 AM,78.8,75.2,89,29.86,10.0,South,8.1,-,0.00,,Mostly Cloudy,170,2013-10-07 14:17:00
10:53 AM,78.1,75.0,90,29.87,10.0,Variable,5.8,-,0.00,Rain,Light Rain,0,2013-10-07 14:53:00
11:10 AM,78.8,75.2,89,29.86,10.0,SSE,6.9,-,0.00,,Mostly Cloudy,160,2013-10-07 15:10:00
11:53 AM,82.0,73.9,76,29.84,10.0,South,11.5,20.7,0.00,,Overcast,190,2013-10-07 15:53:00
12:24 PM,82.4,75.2,79,29.83,10.0,South,17.3,23.0,0.00,,Overcast,190,2013-10-07 16:24:00
12:53 PM,82.9,75.9,79,29.82,10.0,SSW,12.7,23.0,0.00,,Overcast,200,2013-10-07 16:53:00
12:59 PM,84.2,75.2,74,29.82,10.0,SSW,12.7,21.9,N/A,,Mostly Cloudy,210,2013-10-07 16:59:00
1:53 PM,84.9,77.0,77,29.80,10.0,SW,16.1,21.9,0.08,,Mostly Cloudy,220,2013-10-07 17:53:00
2:53 PM,86.0,75.0,70,29.78,10.0,SW,17.3,-,N/A,,Overcast,220,2013-10-07 18:53:00
3:51 PM,80.6,75.2,84,29.76,3.0,WSW,16.1,31.1,0.07,Rain,Light Rain,240,2013-10-07 19:51:00
3:53 PM,82.9,77.0,82,29.76,10.0,WSW,13.8,29.9,0.08,Rain,Light Rain,250,2013-10-07 19:53:00
4:47 PM,80.6,75.2,84,29.77,6.0,WNW,18.4,25.3,0.13,Rain,Light Rain,290,2013-10-07 20:47:00
4:53 PM,80.1,75.9,87,29.77,8.0,West,15.0,25.3,0.18,Rain,Rain,270,2013-10-07 20:53:00
5:10 PM,82.4,75.2,79,29.77,10.0,West,13.8,-,0.11,Rain,Light Rain,260,2013-10-07 21:10:00
5:53 PM,82.0,75.0,79,29.78,10.0,West,15.0,20.7,0.11,,Mostly Cloudy,260,2013-10-07 21:53:00
6:20 PM,82.4,75.2,79,29.78,10.0,WSW,12.7,-,N/A,,Mostly Cloudy,250,2013-10-07 22:20:00
6:35 PM,82.4,75.2,79,29.78,10.0,West,13.8,21.9,N/A,,Scattered Clouds,260,2013-10-07 22:35:00
6:53 PM,82.0,75.0,79,29.78,10.0,West,12.7,-,N/A,,Scattered Clouds,260,2013-10-07 22:53:00
7:41 PM,80.6,75.2,84,29.80,10.0,West,11.5,-,N/A,,Mostly Cloudy,260,2013-10-07 23:41:00
7:53 PM,81.0,75.0,82,29.80,10.0,WSW,13.8,-,N/A,,Mostly Cloudy,250,2013-10-07 23:53:00
8:08 PM,80.6,75.2,84,29.80,10.0,WSW,12.7,-,N/A,,Scattered Clouds,250,2013-10-08 00:08:00
8:44 PM,80.6,75.2,84,29.82,10.0,West,12.7,-,N/A,,Mostly Cloudy,260,2013-10-08 00:44:00
8:53 PM,81.0,75.0,82,29.82,10.0,West,13.8,-,N/A,,Mostly Cloudy,260,2013-10-08 00:53:00
9:27 PM,80.6,75.2,84,29.83,10.0,WSW,10.4,-,N/A,,Partly Cloudy,240,2013-10-08 01:27:00
9:53 PM,81.0,73.9,79,29.83,10.0,WSW,15.0,-,N/A,,Scattered Clouds,240,2013-10-08 01:53:00
10:53 PM,81.0,73.9,79,29.83,10.0,WSW,12.7,-,N/A,,Scattered Clouds,240,2013-10-08 02:53:00
11:53 PM,81.0,75.9,85,29.83,10.0,WSW,12.7,21.9,N/A,,Scattered Clouds,250,2013-10-08 03:53:00